Back to catalog

STARLINK-38224

AliveCommunicationsSSO
NORAD 100197·PAYLOAD·🇺🇸 United States

Launched Aug 1, 2026 from Vandenberg Space Force Base

Loading…

Next Passes (next 24 hours)

TLE

FreshSource: Space-Track

Epoch: Sep 13, 2026, 19:56 UTC

1 A0197U 26175U   26256.83068624  .00207708  00000-0  13568-2 0  9995
2 A0197  97.2828  98.8952 0001661  91.0060 269.1396 15.75242143  8127

Track STARLINK-38224 in real time with AllMySat

Download on the App Store